Powrót do katalogu

BREEZE-M R/B

AktywnyHEO
NORAD 37219·ROCKET BODY·🇷🇺 Russia

Wystrzelony Nov 14, 2010 z Baikonur Cosmodrome

Loading…

Następne Przeloty (najbliższe 24 godziny)

TLE

Starzejące sięSource: Space-Track

Epoka: Aug 29, 2026, 09:40 UTC

1 37219U 10061B   26241.40282894 -.00000077  00000-0  00000+0 0  9996
2 37219  18.7439 315.6273 5455590 260.1203  36.4980  1.94593277112157

Śledź BREEZE-M R/B w czasie rzeczywistym z AllMySat

Download on the App Store